,,,PA_Meas_PMT16A,,PR_Meas_QMR101_102,,RH_Meas_QMH101,,SR_Meas_QMS101,,TA_Meas_QMH101,,GenWind,,GenWind,
date,time,status,PA,status,PR,status,RH,status,SR,status,TA,status,DirAvg,status,SpdAvg,
2011-12-24, 00:00:05,VALID,996.079,VALID,0,VALID,90.0524,VALID,0.104696,VALID,24.1677,VALID,94,VALID,0.492969,
2011-12-24, 00:01:05,VALID,996.097,VALID,0,VALID,90.2203,VALID,0,VALID,24.1677,VALID,141,VALID,0.800781,
2011-12-24, 00:02:05,VALID,996.087,VALID,0,VALID,90.2355,VALID,0.104696,VALID,24.1872,VALID,152,VALID,0.508984,
2011-12-24, 00:03:05,VALID,996.096,VALID,0,VALID,90.0753,VALID,0.104696,VALID,24.1677,VALID,152,VALID,0.260938,
2011-12-24, 00:04:05,VALID,996.113,VALID,0,VALID,89.9914,VALID,0.104696,VALID,24.1464,VALID,152,VALID,0.211719,
2011-12-24, 00:05:05,VALID,996.103,VALID,0,VALID,90.0982,VALID,0,VALID,24.1482,VALID,152,VALID,0.364062,
2011-12-24, 00:06:05,VALID,996.049,VALID,0,VALID,90.1668,VALID,0,VALID,24.1287,VALID,152,VALID,0.36875,
2011-12-24, 00:07:05,VALID,996.058,VALID,0,VALID,90.2355,VALID,0,VALID,24.1482,VALID,33,VALID,0.867578,
2011-12-24, 00:08:05,VALID,996.032,VALID,0,VALID,90.3881,VALID,0.104696,VALID,24.1287,VALID,16,VALID,0.857031,
2011-12-24, 00:09:05,VALID,996.051,VALID,0,VALID,90.3805,VALID,0,VALID,24.1287,VALID,14,VALID,0.627344,
2011-12-24, 00:10:05,VALID,996.066,VALID,0,VALID,90.3194,VALID,0,VALID,24.1482,VALID,14,VALID,0.458594,
2011-12-24, 00:11:05,VALID,996.092,VALID,0,VALID,90.35,VALID,0,VALID,24.1482,VALID,16,VALID,0.913281,
2011-12-24, 00:12:05,VALID,996.095,VALID,0,VALID,90.4644,VALID,0,VALID,24.1464,VALID,30,VALID,1.26094,
2011-12-24, 00:13:05,VALID,996.077,VALID,0,VALID,90.6399,VALID,0,VALID,24.1872,VALID,28,VALID,1.29766,
2011-12-24, 00:14:05,VALID,996.089,VALID,0,VALID,90.6399,VALID,0,VALID,24.1872,VALID,50,VALID,1.44922,
2011-12-24, 00:15:05,VALID,996.089,VALID,0,VALID,90.4415,VALID,0,VALID,24.1854,VALID,46,VALID,1.35508,
2011-12-24, 00:16:05,VALID,996.143,VALID,0,VALID,90.4797,VALID,0.104696,VALID,24.2458,VALID,38,VALID,1.31406,
2011-12-24, 00:17:05,VALID,996.15,VALID,0,VALID,90.4263,VALID,0,VALID,24.2067,VALID,43,VALID,1.39531,
2011-12-24, 00:18:05,VALID,996.19,VALID,0,VALID,90.3957,VALID,0.104696,VALID,24.1872,VALID,52,VALID,1.4082,
2011-12-24, 00:19:05,VALID,996.19,VALID,0,VALID,90.3576,VALID,0.104696,VALID,24.1872,VALID,47,VALID,1.20898,
2011-12-24, 00:20:05,VALID,996.212,VALID,0,VALID,90.3118,VALID,0.104696,VALID,24.2067,VALID,25,VALID,0.803906,
2011-12-24, 00:21:05,VALID,996.23,VALID,0,VALID,90.4415,VALID,0.104696,VALID,24.1464,VALID,24,VALID,1.00937,
2011-12-24, 00:22:05,VALID,996.197,VALID,0,VALID,90.8154,VALID,0.104696,VALID,24.1677,VALID,7,VALID,0.917578,
2011-12-24, 00:23:05,VALID,996.181,VALID,0,VALID,91.0519,VALID,0,VALID,24.1287,VALID,10,VALID,1.08438,
2011-12-24, 00:24:05,VALID,996.205,VALID,0,VALID,91.2579,VALID,0.104696,VALID,24.1092,VALID,16,VALID,1.0582,
2011-12-24, 00:25:05,VALID,996.215,VALID,0,VALID,91.4028,VALID,0,VALID,24.0915,VALID,17,VALID,1.18789,
2011-12-24, 00:26:05,VALID,996.209,VALID,0,VALID,91.5478,VALID,0,VALID,24.0915,VALID,35,VALID,1.23359,
2011-12-24, 00:27:05,VALID,996.212,VALID,0,VALID,91.586,VALID,0,VALID,24.1128,VALID,43,VALID,1.16406,
2011-12-24, 00:28:05,VALID,996.19,VALID,0,VALID,91.5707,VALID,0,VALID,24.0915,VALID,38,VALID,1.10977,
2011-12-24, 00:29:05,VALID,996.165,VALID,0,VALID,91.5097,VALID,0,VALID,24.0915,VALID,40,VALID,1.04648,
2011-12-24, 00:30:05,VALID,996.144,VALID,0,VALID,91.4639,VALID,0,VALID,24.0915,VALID,39,VALID,0.973437,
2011-12-24, 00:31:05,VALID,996.12,VALID,0,VALID,91.3952,VALID,0,VALID,24.0915,VALID,39,VALID,0.584766,
2011-12-24, 00:32:05,VALID,996.092,VALID,0,VALID,91.3647,VALID,0,VALID,24.072,VALID,39,VALID,0.562109,
2011-12-24, 00:33:05,VALID,996.088,VALID,0,VALID,91.3266,VALID,0,VALID,24.072,VALID,39,VALID,0.648828,
2011-12-24, 00:34:05,VALID,996.108,VALID,0,VALID,91.3037,VALID,0,VALID,24.0525,VALID,39,VALID,0.602344,
2011-12-24, 00:35:05,VALID,996.077,VALID,0,VALID,91.2426,VALID,0,VALID,24.0933,VALID,66,VALID,0.840625,
2011-12-24, 00:36:05,VALID,996.073,VALID,0,VALID,91.1663,VALID,0,VALID,24.0933,VALID,66,VALID,1.08867,
2011-12-24, 00:37:05,VALID,996.068,VALID,0,VALID,90.968,VALID,0,VALID,24.1128,VALID,76,VALID,0.853516,
2011-12-24, 00:38:05,VALID,996.073,VALID,0,VALID,90.8077,VALID,0,VALID,24.0915,VALID,76,VALID,0.874219,
2011-12-24, 00:39:05,VALID,996.054,VALID,0,VALID,90.6933,VALID,0,VALID,24.1324,VALID,76,VALID,0.677734,
2011-12-24, 00:40:05,VALID,996.063,VALID,0,VALID,90.5712,VALID,0,VALID,24.1092,VALID,76,VALID,0.594922,
2011-12-24, 00:41:05,VALID,996.065,VALID,0,VALID,90.4491,VALID,0,VALID,24.0897,VALID,76,VALID,0.395703,
2011-12-24, 00:42:05,VALID,996.058,VALID,0,VALID,90.35,VALID,0,VALID,24.0897,VALID,76,VALID,0.354297,
2011-12-24, 00:43:05,VALID,996.081,VALID,0,VALID,90.2737,VALID,0.104696,VALID,24.0897,VALID,76,VALID,0.256641,
2011-12-24, 00:44:05,VALID,996.083,VALID,0,VALID,90.2355,VALID,0,VALID,24.0897,VALID,76,VALID,0.00546875,
2011-12-24, 00:45:05,VALID,996.088,VALID,0,VALID,90.2737,VALID,0,VALID,24.0897,VALID,76,VALID,0,
2011-12-24, 00:46:05,VALID,996.175,VALID,0,VALID,90.7238,VALID,0,VALID,24.1482,VALID,332,VALID,1.60742,
2011-12-24, 00:47:05,VALID,996.237,VALID,0,VALID,91.1511,VALID,0,VALID,24.1677,VALID,330,VALID,1.7293,
2011-12-24, 00:48:05,VALID,996.26,VALID,0,VALID,91.3342,VALID,0,VALID,24.1677,VALID,343,VALID,1.74844,
2011-12-24, 00:49:05,VALID,996.225,VALID,0,VALID,91.235,VALID,0,VALID,24.2067,VALID,347,VALID,1.34922,
2011-12-24, 00:50:05,VALID,996.239,VALID,0,VALID,91.1587,VALID,0,VALID,24.2263,VALID,356,VALID,1.41133,
2011-12-24, 00:51:05,VALID,996.245,VALID,0,VALID,91.0824,VALID,0,VALID,24.2458,VALID,355,VALID,1.59258,
2011-12-24, 00:52:05,VALID,996.239,VALID,0,VALID,90.9603,VALID,0,VALID,24.2653,VALID,346,VALID,1.36055,
2011-12-24, 00:53:05,VALID,996.242,VALID,0,VALID,90.7238,VALID,0,VALID,24.3043,VALID,356,VALID,3.05469,
2011-12-24, 00:54:05,VALID,996.27,VALID,0,VALID,90.6933,VALID,0,VALID,24.3043,VALID,335,VALID,2.06445,
2011-12-24, 00:55:05,VALID,996.244,VALID,0,VALID,90.4034,VALID,0,VALID,24.3043,VALID,348,VALID,1.84883,
2011-12-24, 00:56:05,VALID,996.235,VALID,0,VALID,90.2355,VALID,0,VALID,24.3257,VALID,341,VALID,1.23594,
2011-12-24, 00:57:05,VALID,996.222,VALID,0,VALID,90.2279,VALID,0,VALID,24.3257,VALID,350,VALID,1.39141,
2011-12-24, 00:58:05,VALID,996.175,VALID,0,VALID,90.0829,VALID,0,VALID,24.3452,VALID,3,VALID,1.49453,
2011-12-24, 00:59:05,VALID,996.137,VALID,0,VALID,89.8769,VALID,0,VALID,24.3452,VALID,354,VALID,2.30586,
2011-12-24, 01:00:05,VALID,996.103,VALID,0,VALID,89.7549,VALID,0,VALID,24.3647,VALID,340,VALID,1.7957,
2011-12-24, 01:01:05,VALID,996.091,VALID,0.5,VALID,90.0371,VALID,0,VALID,24.3043,VALID,2,VALID,2.47187,
2011-12-24, 01:02:05,VALID,996.05,VALID,0.5,VALID,90.1974,VALID,0,VALID,24.2281,VALID,357,VALID,2.81367,
2011-12-24, 01:03:05,VALID,996.035,VALID,0.5,VALID,90.6704,VALID,0,VALID,24.15,VALID,342,VALID,1.48398,
2011-12-24, 01:04:05,VALID,996.047,VALID,0,VALID,91.1129,VALID,0,VALID,24.072,VALID,345,VALID,1.74883,
2011-12-24, 01:05:05,VALID,996.078,VALID,0.5,VALID,91.502,VALID,0,VALID,23.9921,VALID,323,VALID,1.3043,
2011-12-24, 01:06:05,VALID,996.042,VALID,0,VALID,91.7691,VALID,0,VALID,23.9744,VALID,325,VALID,1.71563,
2011-12-24, 01:07:05,VALID,996.043,VALID,0.5,VALID,92.0437,VALID,0,VALID,23.9159,VALID,341,VALID,1.74492,
2011-12-24, 01:08:05,VALID,996.108,VALID,0,VALID,92.1353,VALID,0,VALID,23.8573,VALID,334,VALID,2.60703,
2011-12-24, 01:09:05,VALID,996.122,VALID,0.5,VALID,92.1963,VALID,0,VALID,23.797,VALID,325,VALID,1.48281,
2011-12-24, 01:10:05,VALID,996.156,VALID,0,VALID,92.2879,VALID,0,VALID,23.7988,VALID,346,VALID,2.94258,
2011-12-24, 01:11:05,VALID,996.157,VALID,0.5,VALID,92.2955,VALID,0,VALID,23.7384,VALID,339,VALID,2.45117,
2011-12-24, 01:12:05,VALID,996.191,VALID,0.5,VALID,92.4252,VALID,0,VALID,23.7207,VALID,327,VALID,2.41445,
2011-12-24, 01:13:05,VALID,996.257,VALID,0,VALID,92.5854,VALID,0,VALID,23.7012,VALID,324,VALID,2.03828,
2011-12-24, 01:14:05,VALID,996.278,VALID,0,VALID,92.7609,VALID,0,VALID,23.6817,VALID,340,VALID,1.66016,
2011-12-24, 01:15:05,VALID,996.301,VALID,0.5,VALID,92.883,VALID,0,VALID,23.6604,VALID,309,VALID,1.19453,
2011-12-24, 01:16:05,VALID,996.325,VALID,0.5,VALID,92.9974,VALID,0,VALID,23.6604,VALID,302,VALID,1.37461,
2011-12-24, 01:17:04,VALID,996.27,VALID,0,VALID,93.1271,VALID,0,VALID,23.6427,VALID,301,VALID,0.55,
2011-12-24, 01:18:04,VALID,996.264,VALID,0,VALID,93.2187,VALID,0,VALID,23.6214,VALID,326,VALID,0.522656,
2011-12-24, 01:19:04,VALID,996.237,VALID,0,VALID,93.2797,VALID,0,VALID,23.6232,VALID,328,VALID,0.770703,
2011-12-24, 01:20:04,VALID,996.225,VALID,0.5,VALID,93.356,VALID,0,VALID,23.6036,VALID,339,VALID,0.912891,
2011-12-24, 01:21:04,VALID,996.189,VALID,0,VALID,93.4171,VALID,0,VALID,23.6232,VALID,317,VALID,0.410547,
2011-12-24, 01:22:04,VALID,996.227,VALID,0,VALID,93.4552,VALID,0,VALID,23.6214,VALID,311,VALID,1.0875,
2011-12-24, 01:23:04,VALID,996.204,VALID,0,VALID,93.4934,VALID,0,VALID,23.6232,VALID,329,VALID,0.820703,
2011-12-24, 01:24:04,VALID,996.208,VALID,0,VALID,93.5468,VALID,0,VALID,23.6036,VALID,352,VALID,1.10234,
2011-12-24, 01:25:04,VALID,996.176,VALID,0.5,VALID,93.5544,VALID,0,VALID,23.5841,VALID,339,VALID,1.00859,
2011-12-24, 01:26:04,VALID,996.216,VALID,0,VALID,93.5849,VALID,0,VALID,23.5841,VALID,324,VALID,0.769922,
2011-12-24, 01:27:04,VALID,996.193,VALID,0,VALID,93.5849,VALID,0,VALID,23.5841,VALID,306,VALID,0.260547,
2011-12-24, 01:28:04,VALID,996.223,VALID,0,VALID,93.646,VALID,0,VALID,23.5841,VALID,222,VALID,0.922656,
2011-12-24, 01:29:04,VALID,996.197,VALID,0.5,VALID,93.646,VALID,0,VALID,23.5841,VALID,266,VALID,0.521484,
2011-12-24, 01:30:04,VALID,996.211,VALID,0,VALID,93.6612,VALID,0,VALID,23.5841,VALID,295,VALID,0.397266,
2011-12-24, 01:31:04,VALID,996.242,VALID,0,VALID,93.6994,VALID,0,VALID,23.5628,VALID,243,VALID,0.614062,
2011-12-24, 01:32:04,VALID,996.234,VALID,0,VALID,93.6994,VALID,0,VALID,23.5823,VALID,233,VALID,0.670703,
2011-12-24, 01:33:04,VALID,996.247,VALID,0,VALID,93.7375,VALID,0,VALID,23.5841,VALID,258,VALID,0.525781,
2011-12-24, 01:34:04,VALID,996.273,VALID,0.5,VALID,93.7451,VALID,0,VALID,23.6036,VALID,253,VALID,0.530859,
2011-12-24, 01:35:04,VALID,996.273,VALID,0,VALID,93.768,VALID,0,VALID,23.5823,VALID,198,VALID,0.716406,
2011-12-24, 01:36:04,VALID,996.299,VALID,0,VALID,93.7833,VALID,0,VALID,23.6036,VALID,212,VALID,0.433594,
2011-12-24, 01:37:04,VALID,996.307,VALID,0,VALID,93.7833,VALID,0,VALID,23.5823,VALID,212,VALID,0.2,
2011-12-24, 01:38:04,VALID,996.313,VALID,0,VALID,93.8062,VALID,0,VALID,23.5841,VALID,241,VALID,0.785156,
2011-12-24, 01:39:04,VALID,996.315,VALID,0,VALID,93.7985,VALID,0,VALID,23.5646,VALID,280,VALID,0.577734,
2011-12-24, 01:40:04,VALID,996.326,VALID,0.5,VALID,93.7985,VALID,0,VALID,23.5433,VALID,230,VALID,1.10273,
2011-12-24, 01:41:04,VALID,996.371,VALID,0,VALID,93.8062,VALID,0,VALID,23.5451,VALID,229,VALID,1.06094,
2011-12-24, 01:42:04,VALID,996.344,VALID,0,VALID,93.8291,VALID,0,VALID,23.5256,VALID,230,VALID,0.776563,
2011-12-24, 01:43:04,VALID,996.401,VALID,0.5,VALID,93.8291,VALID,0,VALID,23.5043,VALID,260,VALID,0.479297,
2011-12-24, 01:44:04,VALID,996.393,VALID,0,VALID,93.8214,VALID,0,VALID,23.5061,VALID,270,VALID,0.796094,
2011-12-24, 01:45:04,VALID,996.41,VALID,0.5,VALID,93.8138,VALID,0,VALID,23.4671,VALID,274,VALID,0.783594,
2011-12-24, 01:46:04,VALID,996.388,VALID,0,VALID,93.8062,VALID,0,VALID,23.4475,VALID,260,VALID,0.838672,
2011-12-24, 01:47:04,VALID,996.374,VALID,0.5,VALID,93.7833,VALID,0,VALID,23.389,VALID,241,VALID,1.14375,
2011-12-24, 01:48:04,VALID,996.389,VALID,0.5,VALID,93.7757,VALID,0,VALID,23.3305,VALID,282,VALID,0.966406,
2011-12-24, 01:49:04,VALID,996.409,VALID,0,VALID,93.7375,VALID,0,VALID,23.2312,VALID,252,VALID,1.05391,
2011-12-24, 01:50:04,VALID,996.38,VALID,0.5,VALID,93.707,VALID,0,VALID,23.1921,VALID,275,VALID,0.873438,
2011-12-24, 01:51:04,VALID,996.435,VALID,0,VALID,93.6994,VALID,0,VALID,23.1726,VALID,272,VALID,0.397656,
2011-12-24, 01:52:04,VALID,996.439,VALID,0,VALID,93.707,VALID,0,VALID,23.1939,VALID,272,VALID,0.708984,
2011-12-24, 01:53:04,VALID,996.432,VALID,0.5,VALID,93.7375,VALID,0,VALID,23.1531,VALID,282,VALID,0.409375,
2011-12-24, 01:54:04,VALID,996.438,VALID,0,VALID,93.7604,VALID,0,VALID,23.1744,VALID,308,VALID,0.595312,
2011-12-24, 01:55:04,VALID,996.421,VALID,0.5,VALID,93.7909,VALID,0,VALID,23.1354,VALID,328,VALID,1.41016,
2011-12-24, 01:56:04,VALID,996.439,VALID,0,VALID,93.7833,VALID,0,VALID,23.0964,VALID,336,VALID,1.22461,
2011-12-24, 01:57:04,VALID,996.447,VALID,0.5,VALID,93.7985,VALID,0,VALID,23.0573,VALID,311,VALID,1.01055,
2011-12-24, 01:58:04,VALID,996.43,VALID,0,VALID,93.7604,VALID,0,VALID,23.0166,VALID,317,VALID,0.576563,
2011-12-24, 01:59:04,VALID,996.438,VALID,0,VALID,93.768,VALID,0,VALID,22.9988,VALID,322,VALID,0.689453,
2011-12-24, 02:00:04,VALID,996.454,VALID,0.5,VALID,93.7985,VALID,0,VALID,22.9793,VALID,338,VALID,1.43477,
2011-12-24, 02:01:04,VALID,996.467,VALID,0,VALID,93.7909,VALID,0,VALID,22.9598,VALID,313,VALID,1.20938,
2011-12-24, 02:02:04,VALID,996.431,VALID,0.5,VALID,93.7985,VALID,0,VALID,22.9385,VALID,326,VALID,1.31523,
2011-12-24, 02:03:04,VALID,996.435,VALID,0,VALID,93.8291,VALID,0,VALID,22.9403,VALID,319,VALID,0.698438,
2011-12-24, 02:04:04,VALID,996.429,VALID,0,VALID,93.8367,VALID,0,VALID,22.9403,VALID,323,VALID,0.752734,
2011-12-24, 02:05:04,VALID,996.434,VALID,0.5,VALID,93.8596,VALID,0,VALID,22.9208,VALID,344,VALID,0.744922,
2011-12-24, 02:06:04,VALID,996.45,VALID,0,VALID,93.8901,VALID,0,VALID,22.9403,VALID,345,VALID,0.835547,
2011-12-24, 02:07:04,VALID,996.433,VALID,0,VALID,93.9054,VALID,0,VALID,22.9403,VALID,358,VALID,0.398047,
2011-12-24, 02:08:04,VALID,996.444,VALID,0.5,VALID,93.9359,VALID,0,VALID,22.9403,VALID,308,VALID,0.574609,
2011-12-24, 02:09:04,VALID,996.425,VALID,0,VALID,93.9664,VALID,0,VALID,22.9385,VALID,308,VALID,0,
2011-12-24, 02:10:04,VALID,996.421,VALID,0.5,VALID,94.0045,VALID,0,VALID,22.9598,VALID,308,VALID,0,
2011-12-24, 02:11:04,VALID,996.461,VALID,0,VALID,94.0122,VALID,0,VALID,22.9598,VALID,312,VALID,0.512891,
2011-12-24, 02:12:04,VALID,996.445,VALID,0,VALID,94.0122,VALID,0,VALID,22.9598,VALID,312,VALID,0.476563,
2011-12-24, 02:13:04,VALID,996.45,VALID,0.5,VALID,94.0351,VALID,0,VALID,22.9598,VALID,312,VALID,0.390234,
2011-12-24, 02:14:04,VALID,996.479,VALID,0.5,VALID,94.0503,VALID,0,VALID,22.9403,VALID,312,VALID,0.171875,
2011-12-24, 02:15:04,VALID,996.473,VALID,0,VALID,94.0503,VALID,0,VALID,22.9598,VALID,312,VALID,0.289453,
2011-12-24, 02:16:04,VALID,996.493,VALID,0.5,VALID,94.0808,VALID,0,VALID,22.9598,VALID,312,VALID,0.251172,
2011-12-24, 02:17:04,VALID,996.516,VALID,0.5,VALID,94.0885,VALID,0,VALID,22.9598,VALID,312,VALID,0.492969,
2011-12-24, 02:18:04,VALID,996.521,VALID,0,VALID,94.1266,VALID,0,VALID,22.9793,VALID,312,VALID,0.307813,
2011-12-24, 02:19:04,VALID,996.52,VALID,0.5,VALID,94.1114,VALID,0,VALID,22.9793,VALID,312,VALID,0.219922,
2011-12-24, 02:20:04,VALID,996.505,VALID,0,VALID,94.1343,VALID,0,VALID,22.9776,VALID,301,VALID,0.870703,
2011-12-24, 02:21:04,VALID,996.513,VALID,0.5,VALID,94.1571,VALID,0,VALID,23.0378,VALID,270,VALID,1.10586,
2011-12-24, 02:22:04,VALID,996.521,VALID,0,VALID,94.1724,VALID,0,VALID,23.0361,VALID,289,VALID,0.630469,
2011-12-24, 02:23:04,VALID,996.512,VALID,0.5,VALID,94.1953,VALID,0,VALID,23.0769,VALID,346,VALID,1.10469,
2011-12-24, 02:24:04,VALID,996.501,VALID,0,VALID,94.2029,VALID,0,VALID,23.0751,VALID,306,VALID,0.878906,
2011-12-24, 02:25:04,VALID,996.503,VALID,0.5,VALID,94.2029,VALID,0,VALID,23.0964,VALID,325,VALID,0.389062,
2011-12-24, 02:26:04,VALID,996.477,VALID,0,VALID,94.2334,VALID,0,VALID,23.1159,VALID,313,VALID,0.621875,
2011-12-24, 02:27:04,VALID,996.511,VALID,0.5,VALID,94.2411,VALID,0,VALID,23.0964,VALID,300,VALID,0.4125,
2011-12-24, 02:28:04,VALID,996.507,VALID,0,VALID,94.2487,VALID,0,VALID,23.0946,VALID,295,VALID,0.627344,
2011-12-24, 02:29:04,VALID,996.492,VALID,0.5,VALID,94.2487,VALID,0,VALID,23.0946,VALID,265,VALID,0.0921875,
2011-12-24, 02:30:04,VALID,996.463,VALID,0,VALID,94.2411,VALID,0,VALID,23.0751,VALID,282,VALID,0.575,
2011-12-24, 02:31:04,VALID,996.458,VALID,0,VALID,94.2487,VALID,0,VALID,23.0964,VALID,287,VALID,0.431641,
2011-12-24, 02:32:04,VALID,996.453,VALID,0.5,VALID,94.2487,VALID,0,VALID,23.0964,VALID,303,VALID,0.551562,
2011-12-24, 02:33:04,VALID,996.486,VALID,0,VALID,94.2411,VALID,0,VALID,23.0769,VALID,322,VALID,0.652344,
2011-12-24, 02:34:04,VALID,996.508,VALID,0,VALID,94.2258,VALID,0,VALID,23.0556,VALID,317,VALID,0.266016,
2011-12-24, 02:35:04,VALID,996.505,VALID,0.5,VALID,94.2258,VALID,0,VALID,23.0573,VALID,317,VALID,0.227344,
2011-12-24, 02:36:04,VALID,996.544,VALID,0,VALID,94.2563,VALID,0,VALID,23.0556,VALID,317,VALID,0.141797,
2011-12-24, 02:37:04,VALID,996.541,VALID,0,VALID,94.2487,VALID,0,VALID,23.0573,VALID,317,VALID,0,
2011-12-24, 02:38:04,VALID,996.572,VALID,0.5,VALID,94.2487,VALID,0,VALID,23.0573,VALID,317,VALID,0,
2011-12-24, 02:39:04,VALID,996.604,VALID,0,VALID,94.2716,VALID,0,VALID,23.0361,VALID,317,VALID,0,
2011-12-24, 02:40:04,VALID,996.607,VALID,0,VALID,94.2563,VALID,0,VALID,23.0591,VALID,317,VALID,0,
2011-12-24, 02:41:04,VALID,996.663,VALID,0,VALID,94.2792,VALID,0,VALID,23.0786,VALID,317,VALID,0,
2011-12-24, 02:42:04,VALID,996.649,VALID,0.5,VALID,94.2868,VALID,0,VALID,23.0786,VALID,317,VALID,0,
2011-12-24, 02:43:04,VALID,996.629,VALID,0,VALID,94.2792,VALID,0,VALID,23.0591,VALID,318,VALID,0.247266,
2011-12-24, 02:44:04,VALID,996.654,VALID,0,VALID,94.2868,VALID,0,VALID,23.0591,VALID,345,VALID,0.291797,
2011-12-24, 02:45:04,VALID,996.573,VALID,0.5,VALID,94.2868,VALID,0,VALID,23.0591,VALID,345,VALID,0.635156,
2011-12-24, 02:46:04,VALID,996.591,VALID,0,VALID,94.2792,VALID,0,VALID,23.0378,VALID,345,VALID,0.435156,
2011-12-24, 02:47:04,VALID,996.65,VALID,0,VALID,94.3021,VALID,0,VALID,23.0183,VALID,345,VALID,0.323047,
2011-12-24, 02:48:04,VALID,996.656,VALID,0.5,VALID,94.3021,VALID,0,VALID,23.0396,VALID,345,VALID,0.585938,
2011-12-24, 02:49:04,VALID,996.653,VALID,0.5,VALID,94.2945,VALID,0,VALID,23.0396,VALID,345,VALID,0.632813,
2011-12-24, 02:50:04,VALID,996.652,VALID,0,VALID,94.325,VALID,0,VALID,23.0183,VALID,345,VALID,0.309766,
2011-12-24, 02:51:04,VALID,996.616,VALID,0,VALID,94.325,VALID,0,VALID,23.0396,VALID,345,VALID,0.180469,
2011-12-24, 02:52:04,VALID,996.635,VALID,0.5,VALID,94.325,VALID,0,VALID,23.0201,VALID,345,VALID,0.0828125,
2011-12-24, 02:53:04,VALID,996.62,VALID,0,VALID,94.3479,VALID,0,VALID,23.0006,VALID,345,VALID,0.416406,
2011-12-24, 02:54:04,VALID,996.594,VALID,0,VALID,94.3174,VALID,0,VALID,22.9793,VALID,345,VALID,0.492188,
2011-12-24, 02:55:04,VALID,996.56,VALID,0,VALID,94.3326,VALID,0,VALID,22.9793,VALID,345,VALID,0.60625,
2011-12-24, 02:56:04,VALID,996.584,VALID,0,VALID,94.3555,VALID,0,VALID,22.9598,VALID,345,VALID,0.415625,
2011-12-24, 02:57:04,VALID,996.587,VALID,0.5,VALID,94.3479,VALID,0,VALID,22.9811,VALID,345,VALID,0.259766,
2011-12-24, 02:58:04,VALID,996.599,VALID,0,VALID,94.3479,VALID,0,VALID,22.9811,VALID,345,VALID,0.132813,
2011-12-24, 02:59:04,VALID,996.61,VALID,0.5,VALID,94.3479,VALID,0,VALID,22.9598,VALID,345,VALID,0.162109,
2011-12-24, 03:00:04,VALID,996.608,VALID,0,VALID,94.3631,VALID,0,VALID,23.0006,VALID,345,VALID,0,
2011-12-24, 03:01:04,VALID,996.602,VALID,0.5,VALID,94.3403,VALID,0,VALID,22.9598,VALID,345,VALID,0,
2011-12-24, 03:02:04,VALID,996.589,VALID,0,VALID,94.3631,VALID,0,VALID,22.9615,VALID,345,VALID,0,
2011-12-24, 03:03:04,VALID,996.615,VALID,0,VALID,94.3555,VALID,0,VALID,22.9598,VALID,345,VALID,0.147266,
2011-12-24, 03:04:04,VALID,996.618,VALID,0.5,VALID,94.3555,VALID,0,VALID,22.9598,VALID,345,VALID,0.353125,
2011-12-24, 03:05:04,VALID,996.58,VALID,0,VALID,94.3784,VALID,0,VALID,22.9403,VALID,97,VALID,0.668359,
2011-12-24, 03:06:04,VALID,996.631,VALID,0.5,VALID,94.3708,VALID,0,VALID,22.9598,VALID,103,VALID,0.396875,
2011-12-24, 03:07:04,VALID,996.611,VALID,0.5,VALID,94.386,VALID,0,VALID,22.9811,VALID,103,VALID,0.798828,
2011-12-24, 03:08:04,VALID,996.57,VALID,0,VALID,94.3708,VALID,0,VALID,22.9793,VALID,122,VALID,0.996875,
2011-12-24, 03:09:04,VALID,996.598,VALID,0.5,VALID,94.3708,VALID,0,VALID,22.9793,VALID,126,VALID,0.972266,
2011-12-24, 03:10:04,VALID,996.566,VALID,0,VALID,94.4013,VALID,0.104696,VALID,23.0183,VALID,126,VALID,0.958984,
2011-12-24, 03:11:04,VALID,996.53,VALID,0.5,VALID,94.4089,VALID,0,VALID,23.0378,VALID,126,VALID,0.660547,
2011-12-24, 03:12:04,VALID,996.525,VALID,0,VALID,94.4089,VALID,0,VALID,23.0573,VALID,126,VALID,0.664844,
2011-12-24, 03:13:04,VALID,996.539,VALID,0,VALID,94.3937,VALID,0.104696,VALID,23.0556,VALID,126,VALID,0.396094,
2011-12-24, 03:14:04,VALID,996.56,VALID,0.5,VALID,94.4013,VALID,0,VALID,23.0556,VALID,126,VALID,0.405859,
2011-12-24, 03:15:04,VALID,996.562,VALID,0,VALID,94.4165,VALID,0,VALID,23.0964,VALID,126,VALID,0.333594,
2011-12-24, 03:16:04,VALID,996.555,VALID,0.5,VALID,94.4089,VALID,0,VALID,23.0964,VALID,126,VALID,0.282422,
2011-12-24, 03:17:04,VALID,996.535,VALID,0,VALID,94.4165,VALID,0,VALID,23.0964,VALID,126,VALID,0.476953,
2011-12-24, 03:18:04,VALID,996.549,VALID,0.5,VALID,94.4318,VALID,0,VALID,23.0964,VALID,126,VALID,0.432813,
2011-12-24, 03:19:04,VALID,996.569,VALID,0,VALID,94.4165,VALID,0,VALID,23.1159,VALID,126,VALID,0.385938,
2011-12-24, 03:20:04,VALID,996.586,VALID,0,VALID,94.4165,VALID,0,VALID,23.1141,VALID,126,VALID,0.889063,
2011-12-24, 03:21:04,VALID,996.614,VALID,0.5,VALID,94.4394,VALID,0,VALID,23.1159,VALID,108,VALID,1.04883,
2011-12-24, 03:22:04,VALID,996.613,VALID,0,VALID,94.4471,VALID,0,VALID,23.1354,VALID,104,VALID,0.88125,
2011-12-24, 03:23:04,VALID,996.628,VALID,0.5,VALID,94.4089,VALID,0,VALID,23.1354,VALID,147,VALID,0.503516,
2011-12-24, 03:24:04,VALID,996.6,VALID,0,VALID,94.4471,VALID,0,VALID,23.1354,VALID,109,VALID,1.07734,
2011-12-24, 03:25:04,VALID,996.602,VALID,0.5,VALID,94.4318,VALID,0,VALID,23.0964,VALID,86,VALID,1.11094,
2011-12-24, 03:26:04,VALID,996.622,VALID,0,VALID,94.4318,VALID,0,VALID,23.0751,VALID,106,VALID,1.0707,
2011-12-24, 03:27:04,VALID,996.635,VALID,0.5,VALID,94.4394,VALID,0,VALID,23.0751,VALID,115,VALID,1.09297,
2011-12-24, 03:28:04,VALID,996.648,VALID,0,VALID,94.4318,VALID,0.104696,VALID,23.0946,VALID,117,VALID,1.2418,
2011-12-24, 03:29:04,VALID,996.685,VALID,0.5,VALID,94.4471,VALID,0,VALID,23.1354,VALID,116,VALID,1.00352,
2011-12-24, 03:30:04,VALID,996.709,VALID,0,VALID,94.4318,VALID,0,VALID,23.1354,VALID,103,VALID,1.13789,
2011-12-24, 03:31:04,VALID,996.785,VALID,0.5,VALID,94.47,VALID,0,VALID,23.1354,VALID,90,VALID,0.9875,
2011-12-24, 03:32:04,VALID,996.796,VALID,0,VALID,94.4547,VALID,0.104696,VALID,23.1336,VALID,63,VALID,1.01211,
2011-12-24, 03:33:04,VALID,996.796,VALID,0.5,VALID,94.4623,VALID,0,VALID,23.1549,VALID,53,VALID,0.755469,
2011-12-24, 03:34:04,VALID,996.769,VALID,0.5,VALID,94.4547,VALID,0.104696,VALID,23.1141,VALID,54,VALID,0.334375,
2011-12-24, 03:35:04,VALID,996.75,VALID,0.5,VALID,94.47,VALID,0,VALID,23.1354,VALID,54,VALID,0.375,
2011-12-24, 03:36:04,VALID,996.755,VALID,0.5,VALID,94.4547,VALID,0.104696,VALID,23.1141,VALID,54,VALID,0.386719,
2011-12-24, 03:37:04,VALID,996.779,VALID,0,VALID,94.4471,VALID,0.104696,VALID,23.1141,VALID,53,VALID,0.893359,
2011-12-24, 03:38:04,VALID,996.753,VALID,0,VALID,94.47,VALID,0.104696,VALID,23.0751,VALID,55,VALID,0.717578,
2011-12-24, 03:39:04,VALID,996.771,VALID,0.5,VALID,94.4776,VALID,0,VALID,23.0769,VALID,75,VALID,0.727344,
2011-12-24, 03:40:04,VALID,996.737,VALID,0,VALID,94.4623,VALID,0,VALID,23.0378,VALID,75,VALID,0.524609,
2011-12-24, 03:41:04,VALID,996.717,VALID,0,VALID,94.4852,VALID,0,VALID,23.0183,VALID,75,VALID,0.206641,
2011-12-24, 03:42:04,VALID,996.707,VALID,0.5,VALID,94.4852,VALID,0,VALID,22.9988,VALID,75,VALID,0.342578,
2011-12-24, 03:43:04,VALID,996.707,VALID,0,VALID,94.4852,VALID,0,VALID,22.9988,VALID,139,VALID,0.641406,